Wind_Speed
23 22 21 22 20 20 19 19 18 16 14 13 12 10 11 11 10 10 10 11 11 10 9 9 9 9 7 5 4 3 2 3 4 4 5 7 8 10 12 13 15 17 18 18
23 22 21 20 19 19 18 19 19 18 17 15 15 15 16 15 13 13 13 13 12 11 9 9 8 7 6 5 4 4 4 4 5 6 8 9 10 12 14 15 17 18 19 19
22 21 20 19 18 17 17 17 18 19 20 19 19 18 18 17 17 16 15 15 14 13 12 11 9 8 7 7 6 5 6 7 8 9 10 11 13 14 16 18 19 20 21 21
21 21 20 19 18 17 17 18 18 19 20 20 20 20 19 18 18 17 17 16 15 14 13 11 10 9 8 8 7 7 7 8 10 11 12 14 15 16 18 19 20 21 21 22
20 20 20 19 17 16 16 17 17 18 18 19 19 19 19 19 18 17 16 15 14 13 12 11 10 10 9 9 9 9 10 11 12 12 13 15 16 17 19 19 20 21 22 22
19 19 19 18 17 16 16 16 17 17 18 18 18 19 18 18 17 16 15 15 13 12 11 11 10 10 9 9 10 10 11 11 12 13 14 15 16 17 18 19 20 20 21 21
18 18 17 17 17 16 15 15 15 16 16 16 17 17 16 16 16 15 14 14 13 13 12 12 11 11 10 10 10 11 11 12 13 13 14 15 16 16 16 16 16 17 18 18
17 16 16 16 16 15 14 13 13 14 14 15 15 15 15 15 15 15 14 14 14 13 13 13 12 12 12 12 12 12 13 13 14 14 14 14 14 14 13 12 12 13 13 14
16 15 15 15 14 13 12 11 12 12 12 13 13 13 13 14 14 14 15 15 15 15 15 14 14 14 14 14 14 14 15 15 15 15 15 15 15 15 13 12 11 10 10 11
14 14 14 14 13 12 11 10 10 11 11 11 11 11 12 13 14 14 15 16 16 16 17 17 16 16 16 16 16 17 17 18 18 18 18 18 17 17 15 14 12 11 11 11
15 14 13 14 13 12 11 9 9 9 9 9 10 10 11 11 13 14 15 16 16 17 17 17 17 17 17 17 17 18 18 19 20 20 20 20 19 19 18 16 15 14 13 13
15 14 13 13 12 11 11 10 8 8 8 8 8 8 9 10 11 13 14 15 16 16 16 17 17 17 17 17 18 18 19 20 21 21 21 21 21 20 20 19 18 17 16 16
14 14 13 12 12 11 11 10 9 8 8 7 6 7 7 8 9 11 12 13 14 15 15 16 16 16 17 17 17 17 18 19 20 21 21 21 22 22 21 21 20 20 19 19
12 13 13 13 12 12 11 11 9 8 7 7 6 5 6 6 7 8 10 11 12 14 14 14 14 15 15 16 16 16 17 17 19 20 21 21 22 22 22 22 22 22 22 22
10 12 12 13 13 12 12 12 11 9 7 6 5 4 4 5 5 6 7 8 10 11 12 12 13 13 14 15 15 15 15 16 16 17 19 20 20 21 22 22 22 23 23 23
9 10 11 12 12 12 11 12 11 9 7 6 5 4 4 4 4 4 5 6 7 8 10 11 11 12 12 13 14 14 15 15 15 16 17 18 19 19 20 21 22 22 23 23
9 8 9 10 11 11 12 12 11 10 8 6 5 5 4 4 3 3 3 4 5 6 7 8 9 10 11 12 13 13 14 14 14 14 15 16 16 17 18 19 20 21 21 22
12 10 9 9 10 10 10 12 12 11 9 7 6 6 5 4 3 3 3 3 4 4 5 6 7 8 9 10 11 12 13 14 14 14 14 14 15 15 16 16 17 18 19 20
15 14 12 10 9 9 9 9 10 10 10 9 8 7 6 4 4 4 4 4 4 3 3 4 5 6 7 8 9 10 11 12 13 14 14 14 14 14 14 15 15 16 16 17
17 17 16 14 12 11 10 9 9 9 9 9 9 8 7 5 4 4 5 5 5 5 4 4 4 4 5 6 7 7 8 10 11 12 13 13 13 13 13 14 14 14 14 14
21 20 19 18 16 15 13 11 10 9 8 9 9 9 7 6 5 4 5 7 7 7 7 6 5 4 4 4 5 5 6 7 8 10 11 12 13 12 12 12 13 13 12 12
25 23 22 21 20 19 17 15 13 11 10 9 8 8 8 7 6 6 5 7 8 9 9 8 7 6 5 5 4 4 5 5 6 8 10 11 12 12 12 12 12 12 12 12
28 27 26 25 24 22 21 20 18 16 13 12 10 9 8 8 7 7 6 6 8 9 10 10 10 9 8 7 6 5 5 5 5 6 7 9 10 11 12 11 11 11 11 11
32 30 29 28 27 26 25 24 22 21 19 17 14 12 11 10 9 8 7 7 7 9 10 11 11 11 11 10 9 8 7 6 6 6 6 7 8 10 11 11 11 10 10 10
35 34 32 31 30 30 29 27 26 25 24 22 20 17 15 13 11 10 9 9 9 9 10 11 12 13 13 13 12 11 10 9 8 7 7 7 7 8 9 10 10 10 9 9
39 37 36 35 34 33 32 31 30 29 28 26 24 22 20 17 15 13 12 10 9 10 11 12 13 14 14 14 15 15 14 12 11 10 9 8 8 8 8 8 9 9 9 9
44 42 40 38 37 37 36 35 34 33 31 30 29 27 25 22 20 17 16 14 12 11 10 11 12 14 15 15 16 16 16 16 15 14 13 11 10 9 9 8 8 8 8 8
Wind_Direction
35 39 43 47 53 56 56 60 66 66 66 65 69 79 85 91 97 96 101 104 103 101 103 102 102 104 97 94 79 61 34 359 340 324 302 289 287 284 281 281 281 281 281 277
38 40 43 48 51 52 54 58 61 59 60 62 68 72 72 75 80 82 86 88 87 87 89 91 87 78 66 56 46 29 10 347 329 318 305 295 292 289 286 285 284 283 281 279
39 40 43 47 48 52 55 59 60 61 63 64 66 69 71 71 72 73 76 73 73 72 70 70 72 66 53 44 32 12 350 332 322 315 308 301 297 293 290 287 284 283 283 282
40 42 45 49 54 57 61 66 66 64 66 65 65 67 68 68 67 67 68 68 68 67 65 61 57 49 39 29 17 1 345 334 325 317 310 305 300 295 291 289 287 286 284 283
39 42 47 50 55 58 62 67 67 65 66 66 65 65 63 63 63 64 64 63 62 60 57 52 46 37 27 15 4 353 343 334 326 320 314 309 303 299 296 293 290 288 286 285
38 40 45 49 55 61 65 69 68 66 65 64 61 60 59 59 59 59 58 56 54 52 48 43 35 27 18 8 360 352 345 339 332 326 320 315 310 305 300 296 293 290 288 286
37 40 47 50 54 60 65 67 67 65 63 60 57 57 57 56 55 54 53 52 51 48 44 40 35 29 21 14 8 3 357 352 347 341 334 328 322 316 309 303 300 297 293 290
37 41 44 45 51 56 60 64 65 63 60 58 56 55 55 53 51 49 50 50 48 47 45 42 39 35 32 29 25 20 15 9 4 358 354 349 344 338 331 324 319 314 308 303
36 38 38 41 45 49 55 61 62 61 58 57 55 54 52 49 47 47 48 47 48 47 46 44 44 44 44 42 38 34 28 23 19 16 14 12 9 5 360 354 347 342 335 326
32 32 32 35 38 43 46 53 55 55 54 52 50 47 46 46 45 45 45 47 48 48 47 47 48 49 49 47 45 42 39 36 32 30 29 27 25 23 20 17 14 9 2 355
32 33 34 34 35 37 37 41 45 45 45 45 43 41 41 42 43 44 45 47 48 49 49 50 51 51 51 51 48 47 44 42 39 37 36 36 35 33 32 31 29 26 21 16
29 30 31 29 29 31 31 32 33 35 36 35 34 34 35 38 40 42 45 47 47 48 49 50 52 52 52 51 49 48 45 43 41 39 39 38 37 37 37 37 36 34 31 28
26 27 27 25 25 23 20 20 21 24 27 27 26 27 29 34 37 39 43 44 45 46 48 49 50 50 50 49 47 46 45 44 43 42 42 41 41 40 40 40 40 39 38 38
17 21 23 21 20 20 17 14 12 10 14 18 21 20 23 29 33 35 38 40 42 44 46 46 46 46 46 44 43 43 42 42 42 41 41 42 42 43 43 43 44 44 45 45
5 12 17 17 19 20 19 15 11 10 9 11 12 9 12 18 22 26 31 34 37 40 42 42 42 42 41 39 38 38 38 37 38 39 40 41 42 43 44 45 47 47 48 48
334 351 1 9 15 17 15 11 9 9 11 10 3 355 352 353 360 9 17 24 29 33 35 36 36 37 37 35 35 35 35 35 37 38 40 42 43 43 45 46 48 49 49 50
301 318 337 352 2 12 17 15 12 11 10 8 1 351 346 340 334 336 346 2 10 19 25 29 31 32 32 34 34 33 33 33 34 35 38 39 41 42 43 45 47 48 50 51
281 289 303 320 338 350 3 11 14 13 12 7 360 349 338 319 307 300 297 315 335 353 9 17 23 26 28 31 31 32 32 32 32 32 34 36 38 40 41 43 46 47 49 51
272 276 281 290 306 322 336 353 5 9 8 5 3 357 349 327 293 282 274 272 280 299 329 353 6 15 21 24 26 29 30 31 31 31 31 32 34 36 38 40 42 45 46 48
268 270 271 273 280 292 306 322 341 355 1 2 2 3 359 349 324 285 260 253 257 263 277 304 334 353 5 12 16 20 25 27 28 28 26 25 26 28 31 34 36 38 41 43
264 266 267 267 268 272 280 292 306 321 336 348 355 358 355 346 335 308 264 253 253 258 259 268 287 309 330 344 356 4 10 15 19 20 20 19 18 19 22 26 29 32 34 37
261 262 264 265 265 264 266 272 281 291 302 315 327 339 346 343 335 322 288 262 256 256 255 258 266 276 289 304 317 330 343 353 0 7 12 13 14 15 15 18 21 25 29 32
260 261 262 262 262 262 261 262 266 272 280 289 299 306 317 327 330 326 310 281 262 257 256 256 259 263 267 277 287 296 306 320 333 344 355 2 6 9 10 12 14 18 22 26
260 260 260 261 260 260 259 259 259 261 266 271 278 286 292 298 305 311 312 300 277 263 259 257 256 257 259 264 271 279 286 293 304 316 329 341 350 357 2 5 6 10 15 20
259 258 259 259 258 258 257 257 256 256 258 261 265 270 275 280 285 291 295 296 286 272 264 260 258 257 258 259 262 267 272 279 285 294 305 317 328 338 347 354 357 360 3 10
257 256 256 256 256 257 256 255 255 254 254 255 257 260 263 267 271 275 279 285 288 281 270 265 261 259 259 259 258 259 261 266 271 277 285 296 306 317 326 335 344 349 352 356
256 255 254 253 253 253 253 252 252 253 252 252 253 254 256 258 261 264 268 271 274 276 275 271 266 262 260 259 259 258 257 259 262 266 271 277 285 295 306 314 322 331 338 340
Height
5815 5810 5805 5801 5797 5794 5792 5789 5787 5785 5783 5782 5780 5779 5778 5777 5777 5777 5777 5777 5777 5777 5778 5778 5779 5780 5782 5783 5783 5784 5785 5785 5786 5786 5787 5788 5788 5788 5788 5788 5787 5787 5786 5786
5819 5814 5810 5806 5803 5800 5797 5795 5792 5791 5789 5786 5784 5783 5782 5781 5781 5781 5780 5780 5781 5781 5781 5781 5782 5782 5783 5784 5784 5785 5785 5785 5785 5786 5786 5785 5785 5784 5784 5783 5782 5781 5781 5780
5823 5819 5815 5811 5808 5805 5803 5800 5798 5797 5795 5792 5790 5789 5788 5787 5786 5785 5785 5785 5785 5785 5785 5785 5785 5785 5786 5785 5785 5785 5785 5785 5785 5784 5783 5782 5781 5780 5779 5778 5777 5776 5775 5774
5827 5824 5819 5819 5813 5811 5808 5806 5804 5802 5800 5798 5797 5795 5794 5793 5792 5791 5790 5790 5789 5789 5788 5788 5788 5788 5787 5787 5786 5786 5785 5784 5783 5782 5780 5779 5777 5776 5774 5773 5771 5770 5768 5767
5831 5827 5824 5821 5818 5815 5813 5811 5809 5808 5806 5804 5803 5801 5800 5798 5797 5796 5795 5794 5793 5792 5792 5791 5790 5789 5788 5787 5786 5785 5784 5783 5781 5779 5777 5775 5773 5771 5769 5767 5765 5764 5762 5761
5834 5831 5828 5826 5822 5819 5819 5816 5814 5812 5811 5809 5808 5806 5805 5803 5802 5801 5799 5798 5797 5796 5795 5794 5792 5791 5790 5788 5787 5785 5783 5781 5779 5777 5775 5772 5770 5767 5764 5762 5760 5758 5756 5755
5838 5835 5832 5829 5826 5824 5824 5822 5819 5817 5816 5814 5812 5811 5810 5808 5806 5805 5803 5802 5800 5799 5797 5795 5794 5792 5790 5789 5787 5785 5783 5780 5778 5775 5772 5769 5766 5763 5760 5758 5755 5753 5751 5749
5841 5838 5837 5832 5830 5828 5827 5824 5822 5821 5820 5818 5817 5815 5814 5812 5810 5809 5807 5805 5803 5801 5799 5797 5795 5793 5791 5789 5787 5785 5782 5780 5777 5774 5771 5767 5764 5760 5757 5754 5751 5749 5747 5744
5845 5843 5839 5835 5833 5831 5829 5827 5826 5824 5823 5822 5820 5819 5817 5815 5814 5812 5810 5808 5805 5803 5801 5799 5797 5795 5793 5791 5788 5786 5783 5780 5777 5774 5770 5766 5763 5758 5755 5751 5749 5746 5744 5741
5846 5843 5841 5838 5835 5833 5831 5830 5828 5827 5826 5824 5823 5822 5820 5818 5816 5814 5812 5810 5808 5806 5804 5801 5799 5797 5795 5793 5790 5788 5785 5782 5779 5775 5771 5767 5763 5759 5755 5752 5749 5746 5743 5740
5848 5845 5843 5840 5837 5835 5833 5831 5830 5829 5827 5826 5825 5823 5822 5820 5819 5817 5815 5813 5811 5808 5806 5804 5802 5800 5798 5795 5793 5791 5788 5785 5781 5777 5773 5770 5765 5761 5757 5753 5750 5747 5744 5740
5851 5848 5845 5843 5840 5837 5835 5833 5831 5830 5829 5827 5826 5825 5824 5822 5821 5819 5817 5815 5813 5811 5809 5807 5805 5803 5801 5799 5796 5794 5791 5788 5784 5781 5777 5773 5769 5764 5760 5756 5753 5749 5746 5742
5852 5849 5846 5844 5841 5839 5837 5834 5832 5831 5829 5828 5827 5826 5825 5824 5822 5821 5819 5818 5816 5814 5812 5810 5808 5806 5804 5802 5800 5797 5794 5791 5788 5784 5780 5776 5772 5768 5764 5760 5756 5753 5749 5745
5853 5850 5848 5845 5842 5840 5837 5835 5833 5831 5830 5828 5827 5826 5826 5825 5824 5823 5821 5820 5818 5816 5815 5813 5811 5809 5807 5805 5803 5800 5798 5795 5791 5788 5784 5780 5777 5773 5769 5765 5761 5757 5753 5749
5854 5851 5849 5846 5843 5841 5838 5836 5833 5831 5830 5829 5828 5827 5826 5825 5825 5824 5823 5822 5820 5819 5817 5815 5814 5812 5810 5808 5806 5803 5801 5798 5795 5791 5788 5784 5781 5777 5774 5770 5766 5762 5759 5755
5853 5851 5849 5847 5845 5842 5839 5837 5834 5832 5830 5829 5828 5827 5826 5825 5825 5824 5824 5823 5822 5821 5819 5817 5816 5814 5812 5810 5808 5806 5803 5800 5798 5795 5791 5788 5785 5782 5778 5775 5771 5768 5764 5761
5851 5850 5849 5847 5845 5843 5840 5838 5835 5832 5830 5829 5828 5826 5826 5825 5825 5824 5824 5823 5822 5821 5820 5819 5817 5816 5814 5812 5810 5808 5806 5803 5800 5798 5795 5791 5788 5785 5782 5779 5776 5773 5769 5766
5848 5848 5847 5846 5845 5843 5841 5838 5836 5833 5831 5829 5827 5826 5825 5824 5824 5823 5823 5823 5823 5822 5821 5820 5819 5817 5816 5814 5812 5810 5808 5805 5803 5800 5798 5795 5792 5789 5786 5783 5780 5777 5774 5771
5844 5844 5844 5843 5843 5842 5840 5838 5836 5834 5832 5829 5827 5825 5824 5823 5822 5822 5822 5821 5821 5821 5821 5820 5819 5818 5817 5815 5813 5812 5810 5807 5805 5803 5800 5797 5795 5792 5789 5786 5783 5781 5778 5775
5839 5839 5839 5839 5839 5839 5838 5837 5835 5834 5832 5829 5827 5825 5823 5822 5820 5820 5820 5820 5820 5820 5820 5820 5819 5818 5817 5816 5814 5813 5811 5809 5807 5805 5802 5800 5797 5795 5792 5789 5786 5784 5781 5779
5833 5833 5834 5834 5835 5835 5835 5834 5834 5832 5831 5829 5827 5825 5823 5821 5820 5818 5818 5818 5818 5818 5818 5818 5818 5817 5816 5815 5814 5813 5812 5810 5808 5806 5804 5802 5799 5797 5794 5791 5789 5786 5784 5781
5826 5827 5827 5828 5829 5829 5830 5830 5830 5829 5829 5827 5826 5824 5822 5820 5819 5817 5816 5816 5816 5815 5816 5816 5816 5816 5815 5814 5814 5813 5812 5810 5809 5807 5805 5803 5801 5798 5796 5793 5791 5788 5786 5783
5818 5819 5820 5821 5822 5822 5823 5824 5824 5825 5825 5824 5823 5822 5821 5819 5817 5816 5814 5814 5813 5813 5813 5813 5813 5813 5813 5813 5812 5812 5811 5810 5808 5807 5805 5804 5802 5799 5797 5795 5792 5790 5788 5785
5808 5810 5811 5813 5814 5815 5815 5816 5817 5818 5819 5819 5819 5818 5818 5817 5815 5814 5812 5811 5810 5810 5809 5809 5810 5810 5810 5810 5810 5810 5809 5808 5807 5806 5805 5803 5802 5800 5798 5796 5793 5791 5789 5787
5797 5799 5801 5803 5804 5805 5806 5808 5809 5810 5811 5812 5813 5813 5813 5813 5812 5811 5810 5809 5807 5807 5806 5806 5806 5806 5806 5806 5807 5807 5807 5806 5806 5805 5804 5802 5801 5799 5798 5796 5794 5792 5790 5788
5784 5787 5790 5792 5793 5795 5797 5799 5800 5801 5803 5804 5806 5806 5807 5807 5807 5806 5806 5805 5804 5803 5802 5802 5801 5801 5801 5802 5802 5802 5803 5803 5803 5802 5801 5800 5799 5798 5797 5795 5794 5792 5790 5788
5770 5773 5776 5779 5781 5783 5785 5787 5789 5791 5793 5795 5797 5798 5799 5800 5800 5800 5800 5800 5800 5799 5798 5797 5797 5796 5796 5796 5797 5797 5798 5798 5798 5798 5798 5797 5797 5796 5795 5794 5792 5791 5789 5787